Home   Weather   Nouadhibou   Past weeks
Flag for Mauritania

Past Weather in Nouadhibou, Mauritania — Yesterday and Last 2 Weeks

Now
68 °F

Clear.


Feels Like: 68 °F
Forecast: 76 / 66 °F
Wind: 17 mph from North

Location: Nouadhibou Airport

Current Time: Jun 17, 2019 at 1:12:33 am

Latest Report: Jun 17, 2019 at 12:00 am


Visibility: 5 mi

Pressure: 30.07 "Hg

Humidity: 73%

Dew Point: 59 °F

Location of NouadhibouLocation

Past Weather in Nouadhibou — Graph

°F

Nouadhibou Temperature Yesterday

Maximum temperature yesterday: 88 °F (at 1:00 pm)
Minimum temperature yesterday: 66 °F (at 5:00 am)
Average temperature yesterday: 72 °F

High & Low Weather Summary for the Past Weeks

 TemperatureHumidityPressure
High90 °F (Jun 5, 12:00 pm)94% (Jun 2, 4:00 am)30.09 "Hg (Jun 2, 4:00 am)
Low63 °F (Jun 3, 8:00 am)27% (Jun 5, 12:00 pm)29.89 "Hg (Jun 2, 3:00 am)
Average70 °F70%29.97 "Hg
* Reported Jun 2 12:00 am — Jun 17 12:00 am, Nouadhibou. Weather by CustomWeather, © 2019

Note: Actual official high and low records may vary slightly from our data, if they occured in-between our weather recording intervals... More about our weather records

Advertising

Nouadhibou Weather History for the Previous 24 Hours

Scroll right to see more
 ConditionsComfort  
Time TempWeatherWind HumidityBarometerVisibility
12:00 am
Mon, Jun 17
68 °FClear.17 mph73%30.07 "Hg5 mi
11:00 pm
Sun, Jun 16
68 °FClear.16 mph73%30.07 "Hg5 mi
10:00 pm68 °FClear.15 mph73%30.07 "Hg5 mi
9:00 pm70 °FClear.16 mph69%30.04 "Hg5 mi
8:00 pm70 °FClear.20 mph69%30.01 "Hg5 mi
7:00 pm72 °FClear.17 mph69%30.01 "Hg5 mi
6:00 pm73 °FClear.21 mph65%30.01 "Hg5 mi
5:00 pm75 °FClear.20 mph61%30.01 "Hg5 mi
4:00 pm75 °FClear.21 mph61%30.01 "Hg5 mi
3:00 pm79 °FClear.16 mph54%30.01 "Hg5 mi
2:00 pm81 °FClear.14 mph51%30.04 "Hg5 mi
1:00 pm88 °FClear.22 mph31%30.07 "Hg5 mi
12:00 pm84 °FClear.23 mph35%30.07 "Hg5 mi
11:00 am77 °FClear.22 mph51%30.07 "Hg5 mi
10:00 am75 °FClear.21 mph57%30.09 "Hg5 mi
9:00 am72 °FClear.24 mph69%30.07 "Hg5 mi
8:00 am68 °FClear.20 mph78%30.04 "Hg5 mi
7:00 am66 °FClear.20 mph78%30.01 "Hg5 mi
6:00 am66 °FClear.17 mph78%30.01 "Hg5 mi
5:00 am66 °FClear.18 mph78%30.01 "Hg5 mi
4:00 am68 °FClear.20 mph73%30.01 "Hg5 mi
3:00 am68 °FClear.18 mph69%30.01 "Hg5 mi
2:00 am68 °FClear.18 mph69%30.04 "Hg5 mi
1:00 am68 °FClear.16 mph69%30.04 "Hg5 mi
Weather by CustomWeather, © 2019

See weather overview